Location: Borbetomagus
(49.6328°N, 8.3592°E)
Time: 21:11:08
(UTC+00:00)

Cosmos 1975 - Pass Details

Date: 19 May 2025
Orbit: 487 x 506 km, 82.5° (Epoch: 15 June)

Event Time Altitude Azimuth Distance (km) Brightness Sun altitude
Rises 22:44:27 0° 344° (NNW) 2,575 7.8 -19.9°
Reaches altitude 10° 22:46:37 10° 338° (NNW) 1,687 6.4 -19.9°
Maximum altitude 22:50:08 44° 266° (W) 687 3.3 -20.0°
Enters shadow 22:50:36 41° 242° (WSW) 717 3.2 -20.0°
